STARLINK-31234, 59043

Orbit data source: Space-Track

STARLINK-31234, 59043 is a payload satellite owned by SpaceX/Seattle (US) in LEO that was launched on Sun, 25 Feb 2024 UTC via an FALCON 9 launch vehicle from the Air Force Eastern Test Range (AFETR). Payload-class satellites include a variety of spacecraft equipped with specific instruments for various scientific and technological missions. These include communications satellites like Starlink; space stations such as the ISS; scientific satellites like the Hubble; Earth observation satellites from companies like Planet Labs, Umbra, and HawkEye 360; GPS; miniature CubeSats for education and research; and military/defense satellites.

Loading next visibility...
Identifier
59043, 2024-038W
Orbit
LEO
Country
Flag of USUS
Related business
Manufacturer
SpaceX/Seattle
Mission
Operational Commercial Communications
Bus & Motor
STARLINK V2M, Unknown motor
Mass
730 kg wet, ~700 kg dry
Launch date (UTC)
2024-02-25 (2 years ago)
Launch vehicle
FALCON 9
Launch site
Air Force Eastern Test Range (AFETR)
Object type
Payload
Rocket body
Debris
Shape & HBR
Box + 2 Pan, 17.7 m
Radar Cross Section
33.884 m², Large (>1 m²)

Expand to show TLE details & history
Last TLE update: 21 hours ago

TLE from 21 hours ago
0 STARLINK-31234
1 59043U 24038W   25348.73641080 -.00001405  00000-0 -41550-4 0  9990
2 59043  42.9986 143.5157 0001191 271.8319  88.2396 15.27570451101690
Epoch: 2025-12-14T17:40Z
TLE epoch observation values (Epoch: 2025-12-14T17:40:25.893Z)
Latitude
-0.00002°
Longitude
154.76275°
Altitude
482.828 km
Speed
7.626 km/s
True Right ascension
09h 34m 03s
True Declination
0° 00' 00"
Sunlit
Object was in full shadow at epoch
Visualization orbit readout
Latitude
Unknown
Longitude
Unknown
Altitude
Unknown
Speed
Unknown
Apparent Right ascension
Unknown
Apparent Declination
Unknown
Sunlit
N/A
Visualization observer readout
Local Sidereal Time
13:18:45
Azimuth
Unknown
Elevation
Unknown
Doppler factor
Unknown
Orbital elements
Apogee altitude
485.84 km
Perigee altitude
484.206 km
Semi-major axis
6,863.16 km
Eccentricity
0.00012
Inclination
42.9986°
RAAN
143.5157°
Arg. of periapsis
271.8319°
True anomaly
88.25324°
Mean anomaly
88.2396°
Eccentric anomaly
88.24642°
Mean motion
3.81731 °/min
Orbital period
94.31 mins
BSTAR
-0.00004155
Loading maneuver chart data...
Computing Atmospheric mass density...
Loading historical data...
Loading historical data...
Loading historical data...
Loading historical data...
Loading historical data...
Loading historical data...
Loading historical data...

Documentation

Showing up to 5 results
|